Location: Duncanville
(32.6518°N, 96.9083°W)
Time: 10:31:07
(UTC+00:00)

Cosmos 1898 Rocket - Pass Details

Date: 11 February 2026
Orbit: 749 x 779 km, 74.0° (Epoch: 7 March)

Event Time Altitude Azimuth Distance (km) Brightness Sun altitude
Rises 12:38:58 0° 186° (S) 3,219 6.8 -8.1°
Reaches altitude 10° 12:41:20 10° 183° (S) 2,301 6.1 -7.6°
Maximum altitude 12:46:29 61° 104° (ESE) 872 4.2 -6.5°
Drops below altitude 10° 12:51:42 10° 24° (NNE) 2,330 6.2 -5.4°
Sets 12:54:07 0° 21° (NNE) 3,263 6.9 -4.9°
